Regional Weather Roundup
Issued by NWS Cleveland, OH

Home | Current Version | Previous Version | Graphics & Text | Print | Product List | Glossary Off
Versions: 1 2 3 4 5 6 7 8 9 10 11 12 13 14 15 16 17 18 19 20 21 22 23 24 25 26 27 28 29 30 31 32 33 34 35 36 37 38 39 40 41 42 43 44 45 46 47 48 49 50

000
ASUS41 KCLE 141210
RWRCLE
OHIO REGIONAL WEATHER ROUNDUP
NATIONAL WEATHER SERVICE WILMINGTON, OH
800 AM EDT MON JUL 14 2014

NOTE: "FAIR" INDICATES FEW OR NO CLOUDS BELOW 12,000 FEET WITH NO
SIGNIFICANT WEATHER AND/OR OBSTRUCTIONS TO VISIBILITY.

OHZ001>008-015>018-024>027-034-035-043-044-141300-
   NORTHWEST OHIO

CITY           SKY/WX    TMP DP  RH WIND       PRES   REMARKS
DEFIANCE       CLOUDY    70  66  87 CALM      29.88R
FINDLAY        CLOUDY    70  66  87 SW5       29.88S
TOLEDO EXPRESS CLOUDY    68  64  87 SW3       29.87S
TOLEDO METCALF CLOUDY    69  64  84 W3        29.88R
LIMA           CLOUDY    70  67  90 SW5       29.90S
$$

OHZ009>014-019>023-028>033-038-089-141300-
   NORTHEAST OHIO

CITY           SKY/WX    TMP DP  RH WIND       PRES   REMARKS
CLE-HOPKINS    PTSUNNY   70  67  90 SW5       29.90S
CLE-LAKEFRONT  PTSUNNY   72  66  81 S8        29.87S
CUY CO. ARPT   CLOUDY    72  68  88 S7        29.89S
LORAIN-ELYRIA  PTSUNNY   72  67  84 CALM      29.89S
ASHTABULA      FOG       68  67  96 S6        29.90S VSB 1/4
AKRON-CANTON   PTSUNNY   72  68  87 S6        29.91S
WOOSTER        CLOUDY    70  68  93 SW6       29.92R FOG
MANSFIELD      CLOUDY    69  69 100 S3        29.91S
YOUNGSTOWN     CLOUDY    69  68  96 S6        29.91S FOG
$$

OHZ042-051>053-060>062-070>072-077>081-141300-
  SOUTHWEST OHIO

CITY           SKY/WX    TMP DP  RH WIND       PRES   REMARKS
CINC-COVINGTON LGT RAIN  70  67  90 SW7       29.93F FOG
CINC-LUNKEN    LGT RAIN  71  69  93 W5        29.92F
HAMILTON       LGT RAIN  71  69  93 CALM      29.93S FOG
DAYTON         HVY RAIN  72  70  93 S8        29.93S VSB 3/4
WRIGHT-PAT AFB DRIZZLE   72  72 100 SW8       29.91S FOG
DAYTON GENERAL LGT RAIN  70  70 100 SW7       29.92S FOG
WILMINGTON     LGT RAIN  66  65  96 CALM      29.93F FOG
$$

OHZ036-037-039>041-045>050-054>059-063>069-073>076-082>088-141300-
  CENTRAL AND SOUTHEAST OHIO

CITY           SKY/WX    TMP DP  RH WIND       PRES   REMARKS
COLUMBUS       CLOUDY    74  70  87 W7        29.90S FOG
OSU AIRPORT    FOG       71  70  96 SW6       29.91R VSB 1
BOLTON FIELD   TSTM      70  70 100 SW6       29.92R VSB 1/2
RICKENBACK AFB TSTM      73  68  86 SW12      29.91R
NEWARK         CLOUDY    72  69  90 CALM      29.90S FOG
MARION         FOG       70  69  97 S5        29.90S VSB 1/4
LANCASTER      CLOUDY    73  70  90 SW8       29.92S FOG
ZANESVILLE     CLOUDY    72  70  93 S7        29.91S FOG
NEW PHILLY     CLOUDY    71  70  96 S3        29.91F FOG
$$


USA.gov is the U.S. government's official web portal to all federal, state and local government web resources and services.